,

(GMT )
Al Udeid

Weather History for KQIR - March, 2013

Change the Weather History Date:

Friday, March 15, 2013

  Actual Average Record
Temperature  
Mean Temperature 74 °F -  
Max Temperature 90 °F - - ()
Min Temperature 58 °F - - ()
Cooling Degree Days 9    
Growing Degree Days 24 (Base 50)    
Moisture  
Dew Point 44 °F    
Average Humidity 40    
Maximum Humidity 75    
Minimum Humidity 12    
Precipitation  
Precipitation 0.00 in - - ()
Sea Level Pressure  
Sea Level Pressure 30.01 in    
Wind  
Wind Speed 7 mph ()    
Max Wind Speed 13 mph    
Max Gust Speed -    
Visibility 6.2 miles    
Events      
Averages and records for this station are not official NWS values.
T = Trace of Precipitation, MM = Missing Value Source: Averaged Metar Reports

Daily Weather History Graph

Daily Weather History Graph

Search for Another Location

Airport or City:

Trip Planner

Search our weather history database for the weather conditions in past years. The results will help you decide how hot, cold, wet, or windy it might be!

Date:

Astronomy

Mar. 15, 2013 Rise Set
Actual Time 5:43 AM +03 5:43 PM +03
Civil Twilight 5:21 AM +03 6:06 PM +03
Nautical Twilight 4:54 AM +03 6:33 PM +03
Astronomical Twilight 4:28 AM +03 6:59 PM +03
Moon 7:44 AM +03 (3/15) 9:07 PM +03 (3/15)
Length of Visible Light 12h 45m
Length of Day
11h 59m
Waxing Crescent, 13% of the Moon is Illuminated
Mar 15
Waxing Crescent
Mar 19
First Quarter
Mar 27
Full
Apr 3
Last Quarter
Apr 10
New

Hourly Weather History & Observations

Time (+03) Temp. Dew Point Humidity Pressure Visibility Wind Dir Wind Speed Gust Speed Precip Events Conditions
12:55 AM 60.3 °F 42.6 °F 52% 30.00 in 6.2 mi West 4.6 mph - N/A   Clear
1:55 AM 59.9 °F 44.6 °F 57% 29.99 in 6.2 mi West 9.2 mph - N/A   Clear
2:55 AM 60.1 °F 44.6 °F 57% 29.98 in 6.2 mi West 9.2 mph - N/A   Clear
3:55 AM 58.6 °F 46.2 °F 63% 29.99 in 6.2 mi West 9.2 mph - N/A   Clear
4:55 AM 59.2 °F 51.1 °F 74% 30.00 in 6.2 mi West 9.2 mph - N/A   Clear
5:55 AM 58.1 °F 50.4 °F 75% 30.01 in 6.2 mi West 9.2 mph - N/A   Clear
6:55 AM 61.3 °F 50.7 °F 68% 30.02 in 6.2 mi West 5.8 mph - N/A   Clear
7:55 AM 69.1 °F 50.2 °F 51% 30.05 in 6.2 mi WNW 5.8 mph - N/A   Partly Cloudy
8:55 AM 77.7 °F 43.5 °F 30% 30.06 in 6.2 mi WNW 6.9 mph - N/A   Clear
9:55 AM 82.2 °F 39.0 °F 21% 30.06 in 6.2 mi NW 5.8 mph - N/A   Scattered Clouds
10:55 AM 85.5 °F 36.1 °F 17% 30.05 in 6.2 mi NNW 5.8 mph - N/A   Scattered Clouds
11:55 AM 88.2 °F 35.6 °F 15% 30.03 in 6.2 mi North 6.9 mph - N/A   Scattered Clouds
12:55 PM 89.2 °F 35.1 °F 15% 30.00 in 6.2 mi North 5.8 mph - N/A   Scattered Clouds
1:55 PM 90.7 °F 34.0 °F 13% 29.97 in 6.2 mi ENE 8.1 mph - N/A   Partly Cloudy
2:55 PM 90.1 °F 31.6 °F 12% 29.96 in 6.2 mi ENE 9.2 mph - N/A   Clear
3:55 PM 87.6 °F 39.7 °F 19% 29.96 in 6.2 mi East 12.7 mph - N/A   Clear
4:55 PM 84.6 °F 41.4 °F 22% 29.98 in 6.2 mi ENE 11.5 mph - N/A   Clear
5:55 PM 79.7 °F 44.6 °F 29% 29.99 in 6.2 mi East 9.2 mph - N/A   Clear
6:55 PM 77.4 °F 47.1 °F 34% 30.01 in 6.2 mi NNE 6.9 mph - N/A   Clear
7:55 PM 74.8 °F 49.5 °F 41% 30.02 in 6.2 mi NE 5.8 mph - N/A   Clear
8:55 PM 72.9 °F 49.5 °F 44% 30.02 in 6.2 mi NNE 6.9 mph - N/A   Clear
9:55 PM 72.3 °F 48.7 °F 43% 30.03 in 6.2 mi NNE 4.6 mph - N/A   Clear
10:55 PM 64.8 °F 45.9 °F 50% 30.02 in 6.2 mi SSW 5.8 mph - N/A   Clear
11:55 PM 63.1 °F 44.4 °F 50% 30.01 in 6.2 mi WSW 4.6 mph - N/A   Clear